Weather History for KTDF - December, 2012

Change the Weather History Date:

Sunday, December 16, 2012

  Actual Average Record
Temperature  
Mean Temperature 50 °F -  
Max Temperature 55 °F 51 °F 79 °F (1971)
Min Temperature 44 °F 30 °F 10 °F (1968)
Degree Days  
Heating Degree Days 16    
Moisture  
Dew Point 49 °F    
Average Humidity 94    
Maximum Humidity 100    
Minimum Humidity 58    
Precipitation  
Precipitation 0.24 in - - ()
Sea Level Pressure  
Sea Level Pressure 30.00 in    
Wind  
Wind Speed 2 mph (SW)    
Max Wind Speed 10 mph    
Max Gust Speed -    
Visibility 8 miles    
Events Rain    
Averages and records for this station are not official NWS values.
T = Trace of Precipitation, MM = Missing Value Source: NWS Daily Summary

Daily Weather History Graph

Daily Weather History Graph

Search for Another Location

Airport or City:

Trip Planner

Search our weather history database for the weather conditions in past years. The results will help you decide how hot, cold, wet, or windy it might be!

Date:

Astronomy

Dec. 16, 2012 Rise Set
Actual Time 7:20 AM EST 5:02 PM EST
Civil Twilight 6:52 AM EST 5:31 PM EST
Nautical Twilight 6:19 AM EST 6:03 PM EST
Astronomical Twilight 5:48 AM EST 6:35 PM EST
Moon 9:58 AM EST (12/16) 9:09 PM EST (12/16)
Length of Visible Light 10h 39m
Length of Day
9h 41m
Waxing Crescent, 16% of the Moon is Illuminated
Dec 16
Waxing Crescent
Dec 20
First Quarter
Dec 28
Full
Jan 4
Last Quarter
Jan 11
New

Hourly Weather History & Observations

Time (EST) Temp. Windchill Dew Point Humidity Pressure Visibility Wind Dir Wind Speed Gust Speed Precip Events Conditions
12:15 AM 48.2 °F - 33.8 °F 58% 30.10 in 10.0 mi Calm Calm - N/A Rain Light Rain
12:35 AM 46.4 °F - 39.2 °F 76% 30.09 in 10.0 mi Calm Calm - N/A   Overcast
12:55 AM 46.4 °F - 39.2 °F 76% 30.07 in 10.0 mi Calm Calm - N/A   Overcast
1:15 AM 46.4 °F - 37.4 °F 71% 30.07 in 10.0 mi Calm Calm - N/A   Overcast
1:35 AM 46.4 °F - 37.4 °F 71% 30.07 in 10.0 mi Calm Calm - N/A   Overcast
1:55 AM 46.4 °F - 37.4 °F 71% 30.07 in 10.0 mi Calm Calm - N/A   Overcast
2:15 AM 46.4 °F - 39.2 °F 76% 30.07 in 10.0 mi Calm Calm - N/A   Overcast
2:35 AM 46.4 °F - 41.0 °F 81% 30.08 in 10.0 mi Calm Calm - N/A   Overcast
2:55 AM 46.4 °F - 41.0 °F 81% 30.08 in 10.0 mi Calm Calm - N/A Rain Light Rain
3:15 AM 46.4 °F - 41.0 °F 81% 30.07 in 10.0 mi Calm Calm - N/A   Overcast
3:35 AM 46.4 °F - 41.0 °F 81% 30.07 in 10.0 mi Calm Calm - N/A   Overcast
3:55 AM 46.4 °F - 42.8 °F 87% 30.08 in 10.0 mi Calm Calm - N/A   Overcast
4:15 AM 46.4 °F - 42.8 °F 87% 30.08 in 10.0 mi Calm Calm - N/A Rain Light Rain
4:35 AM 46.4 °F - 44.6 °F 93% 30.07 in 10.0 mi Calm Calm - N/A Rain Rain
4:55 AM 46.4 °F - 44.6 °F 93% 30.08 in 10.0 mi Calm Calm - N/A   Overcast
5:15 AM 46.4 °F 45.2 °F 44.6 °F 93% 30.07 in 10.0 mi East 3.5 mph - N/A   Overcast
5:35 AM 44.6 °F - 44.6 °F 100% 30.06 in 10.0 mi Calm Calm - N/A Rain Light Rain
5:55 AM 44.6 °F - 42.8 °F 93% 30.06 in 10.0 mi Calm Calm - N/A Rain Light Rain
6:15 AM 44.6 °F - 42.8 °F 93% 30.07 in 10.0 mi Calm Calm - 0.01 in Rain Rain
6:35 AM 44.6 °F 43.1 °F 44.6 °F 100% 30.07 in 7.0 mi North 3.5 mph - 0.03 in Rain Rain
6:55 AM 44.6 °F - 44.6 °F 100% 30.08 in 7.0 mi Calm Calm - 0.06 in Rain Rain
7:15 AM 44.6 °F - 44.6 °F 100% 30.07 in 7.0 mi Calm Calm - N/A Rain Rain
7:35 AM 44.6 °F - 44.6 °F 100% 30.07 in 7.0 mi Calm Calm - 0.01 in   Overcast
7:55 AM 44.6 °F - 44.6 °F 100% 30.08 in 5.0 mi Calm Calm - 0.02 in Rain Rain
8:15 AM 44.6 °F - 44.6 °F 100% 30.08 in 3.0 mi Calm Calm - 0.03 in Rain Rain
8:35 AM 44.6 °F - 44.6 °F 100% 30.08 in 5.0 mi Calm Calm - 0.06 in Rain Rain
8:55 AM 44.6 °F 43.1 °F 44.6 °F 100% 30.07 in 5.0 mi South 3.5 mph - 0.08 in Rain Rain
9:15 AM 46.4 °F - 46.4 °F 100% 30.07 in 10.0 mi North - - N/A   Overcast
9:35 AM 46.4 °F 44.3 °F 46.4 °F 100% 30.05 in 10.0 mi South 4.6 mph - N/A   Overcast
9:55 AM 48.2 °F - 48.2 °F 100% 30.06 in 10.0 mi South 4.6 mph - N/A   Overcast
10:15 AM 50.0 °F - 48.2 °F 94% 30.06 in 10.0 mi SSW 5.8 mph - N/A   Overcast
10:35 AM 50.0 °F - 48.2 °F 94% 30.06 in 10.0 mi SSW 5.8 mph - N/A   Overcast
10:55 AM 50.0 °F - 50.0 °F 100% 30.06 in 7.0 mi SW 4.6 mph - N/A Rain Rain
11:15 AM 50.0 °F - 50.0 °F 100% 30.05 in 7.0 mi SSW 3.5 mph - N/A Rain Light Rain
11:35 AM 51.8 °F - 50.0 °F 94% 30.03 in 10.0 mi SW 6.9 mph - N/A   Overcast
11:55 AM 51.8 °F - 50.0 °F 94% 30.01 in 4.0 mi SSW 3.5 mph - 0.03 in Rain Light Rain
12:15 PM 51.8 °F - 51.8 °F 100% 30.00 in 10.0 mi SSE 4.6 mph - N/A   Drizzle
12:35 PM 53.6 °F - 51.8 °F 94% 29.99 in 10.0 mi SSW 4.6 mph - N/A   Overcast
12:55 PM 53.6 °F - 51.8 °F 94% 29.98 in 10.0 mi SSW 4.6 mph - N/A   Overcast
1:15 PM 53.6 °F - 51.8 °F 94% 29.97 in 10.0 mi Calm Calm - N/A   Overcast
1:35 PM 53.6 °F - 53.6 °F 100% 29.96 in 10.0 mi SSW 3.5 mph - N/A   Overcast
1:55 PM 55.4 °F - 53.6 °F 94% 29.95 in 10.0 mi SW 5.8 mph - N/A Rain Light Rain
2:15 PM 55.4 °F - 53.6 °F 94% 29.95 in 10.0 mi SW 6.9 mph - N/A Rain Light Rain
2:35 PM 55.4 °F - 53.6 °F 94% 29.95 in 10.0 mi SW 3.5 mph - N/A   Overcast
2:55 PM 55.4 °F - 53.6 °F 94% 29.96 in 10.0 mi West 3.5 mph - N/A   Overcast
3:15 PM 55.4 °F - 53.6 °F 94% 29.96 in 10.0 mi Calm Calm - N/A Rain Light Rain
3:35 PM 55.4 °F - 53.6 °F 94% 29.96 in 10.0 mi Calm Calm - N/A Rain Light Rain
3:55 PM 55.4 °F - 55.4 °F 100% 29.95 in 10.0 mi Calm Calm - N/A   Overcast
4:15 PM 55.4 °F - 55.4 °F 100% 29.95 in 10.0 mi SW 3.5 mph - N/A   Overcast
4:35 PM 55.4 °F - 55.4 °F 100% 29.95 in 10.0 mi Calm Calm - N/A   Drizzle
4:55 PM 53.6 °F - 53.6 °F 100% 29.94 in 7.0 mi Calm Calm - N/A   Light Drizzle
5:15 PM 53.6 °F - 53.6 °F 100% 29.94 in 10.0 mi SSW 5.8 mph - N/A Rain Light Rain
5:35 PM 53.6 °F - 53.6 °F 100% 29.95 in 10.0 mi SSW 5.8 mph - N/A   Light Drizzle
5:55 PM 53.6 °F - 53.6 °F 100% 29.94 in 10.0 mi SSW 5.8 mph - N/A   Mostly Cloudy
6:15 PM 53.6 °F - 53.6 °F 100% 29.93 in 7.0 mi SSW 8.1 mph - N/A   Overcast
6:35 PM 53.6 °F - 53.6 °F 100% 29.93 in 7.0 mi SSW 5.8 mph - N/A   Overcast
6:55 PM 53.6 °F - 53.6 °F 100% 29.93 in 7.0 mi SSW 6.9 mph - N/A   Light Drizzle
7:15 PM 53.6 °F - 53.6 °F 100% 29.92 in 7.0 mi SSW 5.8 mph - N/A   Drizzle
7:35 PM 53.6 °F - 53.6 °F 100% 29.93 in 7.0 mi SW 6.9 mph - N/A Rain Light Rain
7:55 PM 53.6 °F - 53.6 °F 100% 29.93 in 7.0 mi SW 5.8 mph - N/A Rain Light Rain
8:15 PM 53.6 °F - 53.6 °F 100% 29.93 in 5.0 mi WSW 6.9 mph - 0.01 in Rain Light Rain
8:35 PM 53.6 °F - 53.6 °F 100% 29.93 in 5.0 mi WSW 5.8 mph - 0.01 in   Overcast
8:55 PM 53.6 °F - 53.6 °F 100% 29.93 in 5.0 mi WSW 4.6 mph - 0.01 in   Overcast
9:15 PM 53.6 °F - 53.6 °F 100% 29.91 in 5.0 mi SW 5.8 mph - N/A Rain Rain
9:35 PM 53.6 °F - 53.6 °F 100% 29.91 in 5.0 mi SW 6.9 mph - N/A   Overcast
9:55 PM 53.6 °F - 53.6 °F 100% 29.92 in 7.0 mi SSW 8.1 mph - N/A   Overcast
10:15 PM 53.6 °F - 53.6 °F 100% 29.92 in 7.0 mi SW 10.4 mph - N/A Rain Rain
10:35 PM 53.6 °F - 53.6 °F 100% 29.91 in 5.0 mi SW 8.1 mph - N/A Rain Light Rain
10:55 PM 53.6 °F - 53.6 °F 100% 29.92 in 5.0 mi SSW 6.9 mph - 0.01 in Rain Light Rain
11:15 PM 53.6 °F - 53.6 °F 100% 29.93 in 5.0 mi SW 4.6 mph - 0.01 in Rain Light Rain
11:35 PM 53.6 °F - 53.6 °F 100% 29.92 in 5.0 mi WSW 3.5 mph - 0.02 in Rain Light Rain
11:55 PM 53.6 °F - 53.6 °F 100% 29.92 in 5.0 mi WSW 3.5 mph - 0.03 in Rain Light Rain